Regional Weather Roundup
Issued by NWS

Home | Current Version | Previous Version | Text Only | Print | Product List | Glossary On
Versions: 1 2 3 4 5 6 7 8 9 10 11 12 13 14 15 16 17 18 19 20 21 22 23 24 25 26 27 28 29 30 31 32 33 34 35 36 37 38 39 40 41 42 43 44 45 46 47 48 49 50
000
ASHW40 PHFO 010143
RWRHI

WEATHER ROUNDUP FOR HAWAII
NATIONAL WEATHER SERVICE HONOLULU HI
300 PM HST TUE MAY 31 2016

THIS IS AN AUTOMATED REPORT THAT HAS NOT BEEN QUALITY CONTROLLED.

NOTE..."FAIR" INDICATES FEW OR NO CLOUDS BELOW 12,000 FEET WITH NO
SIGNIFICANT WEATHER AND/OR OBSTRUCTIONS TO VISIBILITY.

* - THESE SITES REPORT LIMITED FIELDS

HIZ001>004-010200-
KAUAI-NIIHAU-

CITY           SKY/WX    TMP DP  RH WIND       PRES   REMARKS
LIHUE APT      CLOUDY    72  68  87 N20       30.03F
PORT ALLEN*      N/A     77 N/A N/A E17G23      N/A
POIPU*           N/A     79 N/A N/A NE8G17      N/A
PRINCEVILLE*     N/A     70 N/A N/A E5G10       N/A
KOKOLE POINT*    N/A     82 N/A N/A MISG        N/A
MOLOAA DAIRY*    N/A     73  66  78 E7G16       N/A
WAIMEA HTS*      N/A     79  63  57 W3G12       N/A
PUU OPAE*        N/A     68  63  83 S2          N/A
PUU LUA*       NOT AVBL
MAKAHA RIDGE*    N/A     72  66  83 N3G13       N/A
$$

HIZ005>011-010200-
OAHU-

CITY           SKY/WX    TMP DP  RH WIND       PRES   REMARKS
HONOLULU       PTSUNNY   78  66  66 NE13      29.99F
KALAELOA       PTSUNNY   82  66  58 NE10G17   30.00F
KANEOHE MCB    CLOUDY    76  66  71 NE14G21   29.98F
WHEELER FIELD  FAIR      75  66  73 NE13      30.01S
BELLOWS*         N/A    N/A N/A N/A NE23        N/A
KAHUKU*          N/A    N/A N/A N/A VRB8G15     N/A
WHEELER*         N/A    N/A N/A N/A N8          N/A
WAIANAE HARBOR   N/A    N/A N/A N/A E8G16       N/A
DILLINGHAM*      N/A     70  64  83 MISG        N/A
KAHUKU TRN*      N/A     73  63  68 CALM        N/A
KAWAILOA*        N/A     70  66  88 E14G22      N/A
KII*             N/A     77  68  73 NE17G24     N/A
MAKUA RANGE*     N/A     73  66  78 E12G22      N/A
OAHU FOREST NW NOT AVBL
SCHOFIELD BRK*   N/A     73  66  78 MISG        N/A
SCHOFIELD S*   NOT AVBL
WAIANAE VLY*   NOT AVBL
KUAOKALA*        N/A    N/A N/A N/A MISG        N/A
HONOULIUULI*   NOT AVBL
MOKUOLOE IS*   NOT AVBL
PALEHUA*         N/A     66  63  88 NE12G22     N/A
WAIAWA PHB*    NOT AVBL
$$

HIZ012>013-010200-
MOLOKAI-

CITY           SKY/WX    TMP DP  RH WIND       PRES   REMARKS
MOLOKAI AIRPT  CLOUDY    75  66  73 NE15G28   30.00F
KALAUPAPA      NOT AVBL
MAKAPULAPAI*     N/A     73  68  83 E15G26      N/A
MOLOKAI 1*     NOT AVBL
PUU ALII*        N/A     59  59 100 N2G8        N/A
$$

HIZ016-010200-
KAHOOLAWE-

CITY           SKY/WX    TMP DP  RH WIND       PRES   REMARKS
KAHOOLAWE*       N/A     68 N/A N/A NE1         N/A
HAKIOAWA*        N/A     85  79  82 MISG      30.39  HX  97
HONOKANAIA*      N/A     83  67  57 VRB20G35  29.91F
KANELOA*         N/A     72  68  88 N15G37    30.06S
KEALIALALO*    NOT AVBL
LUA MAKIKA*    NOT AVBL
$$

HIZ014>015-010200-
LANAI-

CITY           SKY/WX    TMP DP  RH WIND       PRES   REMARKS
LANAI CITY     CLOUDY    72  64  78 NE25G37   30.00F
LANAI 1*       NOT AVBL
$$

HIZ017>028-010200-
MAUI-

CITY           SKY/WX    TMP DP  RH WIND       PRES   REMARKS
KAHULUI        LGT RAIN  75  70  84 E13G20    29.99F
KAPALUA-W MAUI LGT RAIN  73  68  83 N20G26    29.99
HANA AIRPORT   NOT AVBL
HANA*            N/A     75 N/A N/A NE8         N/A
HALEAKALA SUMM   N/A     50  50 100 NE8         N/A
MAALAEA BAY*     N/A     79 N/A N/A NE16G26     N/A
HALEAKALA*     NOT AVBL
KAUPO GAP*       N/A    N/A N/A N/A SW2G10      N/A
KULA 1*          N/A     58  57  96 W6          N/A
$$

HIZ023>026-010200-
BIG ISLAND OF HAWAII COAST AND LOWER SLOPES-

CITY           SKY/WX    TMP DP  RH WIND       PRES   REMARKS
KAILUA KONA    SUNNY     86  72  62 N18       29.92F HX  92
HILO           MOSUNNY   81  69  67 N10       29.97F
HONOKAA*         N/A     73 N/A N/A VRB1        N/A
KAWAIHAE MWT*    N/A     91 N/A N/A SW8         N/A
KAWAIHAE*        N/A     84 N/A N/A W3        29.89F
SOUTH POINT*     N/A     77 N/A N/A NE12G17     N/A
UPOLU AIRPORT*   N/A    N/A N/A N/A NE17        N/A
KAMUELA*       PTCLDY    75  63  64 NE16      30.05S
HAKALAU*         N/A     58  57  97 NE6G12      N/A
KALOKO-HONOKO*   N/A     82  68  61 W7        29.92F
PALI 2*          N/A     66  64  94 NE3         N/A
KEALAKOMO*       N/A     79  68  69 E18G26      N/A
KAUPULEHU*       N/A     81  64  57 NW12G20     N/A
KAPAPALA*        N/A     70  66  88 SE3         N/A
LOWER KAHUKU*    N/A     66 N/A N/A E1          N/A
PUHE CS*         N/A     88  64  45 S3          N/A
PUHO CS*         N/A     83  66  55 W3          N/A
PTA KEAMUKU*     N/A    N/A N/A N/A CALM        N/A
WAIKOLOA*        N/A     81  64  57 SW5G10      N/A
$$

HIZ027>028-010200-
BIG ISLAND OF HAWAII INTERIOR AND SUMMMITS-

CITY           SKY/WX    TMP DP  RH WIND       PRES   REMARKS
BRADSHAW FIELD MOSUNNY   69  53  56 W9G18     30.26F
MK VISITOR CEN   N/A     52  46  82 W3          N/A
MAUNA KEA*       N/A     50  18  27 NE7         N/A
MAUNA LOA*       N/A     48  41  76 MISG        N/A
MAUNA LOA 1*   NOT AVBL
PTA KIPUKA*      N/A     70  55  60 N8G18       N/A
PTA RANGE 17*    N/A     66  52  59 NW12G18     N/A
PTA WEST*        N/A     68  55  64 N12G18      N/A
NENE CABIN*      N/A     55  54  94 SE3         N/A
AHUMOA*          N/A     60  60 100 N8G14       N/A
PTA PORTABLE*  NOT AVBL
PUU MALI*        N/A     55  55 100 VRB6G14     N/A
$$

HIC003-010200-
NORTHWEST ISLANDS-

CITY           SKY/WX    TMP DP  RH WIND       PRES   REMARKS
MIDWAY ISLAND  SUNNY     79  70  73 SE8       30.13F
MIDWAY NOS*      N/A     75 N/A N/A MISG      30.11F
FRENCH FRIGATE NOT AVBL
$$

PHZ110>124-180-010200-
BUOY REPORTS

STATION/POSITION TIME  TEMP    WIND        PRES    WAVE   SWELL
                       AIR SEA DIR/SP/G            HT/PER HT/DIR
                 (UTC) (F)     (DEG/KT/KT) (MB)    (FT/S) (FT/D)
BUOY 51001       0100   79 80   60/ 10/ 12 1016.1F
BUOY 51101       0050   74 78   50/ 17/ 21 1018.7F   7/ 6   3/140
BUOY 51100       NOT AVBL
BUOY 51002       0050   78 80   80/  8/ 12 1014.0F   5/13   5/ 60
BUOY 51003       0050   78 80   50/ 12/ 16 1014.3F   6/ 7   5/ 30
BUOY 51004       0050   78 80   60/  8/ 10 1014.1F   5/12   5/140
BARBERS PT BUOY  NOT AVBL
WAIMEA BAY BUOY  0104      78                N/A     5/ 7   2/310
KAILUA BAY BUOY  0111      79                N/A     7/ 7   2/120
LANAI BUOY       0115      79                N/A     3/13   2/180
BARBERS PT 2     0103      78                N/A     4/13   3/150
PAUWELA MAUI     0109      78                N/A     6/ 6   2/330
HILO             0112      80                N/A     4/ 7   2/ 30
KANEOHE BAY BUOY 0106      78                N/A     6/ 7
HANALEI KAUAI    NOT AVBL
KAHULUI HARBOR   0100      80              1015.3F
HONOLULU HARBOR  0100      79                N/A
KILO NALU        NOT AVBL
HILO HARBOR      0100      79              1014.2F
MOKUOLOE         0000      81   50/ 18/ 19 1016.4F
NAWILIWILI       0100      80                N/A
WHOTS BUOY       NOT AVBL
BUOY 51028       NOT AVBL
$$

......................KEY........................................
  SKY/WX - SKY CONDITIONS/PRESENT WEATHER
  TMP    - TEMPERATURE IN FAHRENHEIT
  DWPT   - DEWPOINT IN FAHRENHEIT
  RH     - RELATIVE HUMIDITY IN PERCENT
  WIND   - DIRECTION AND SPEED /MPH FOR ISLANDS...KTS FOR BUOYS/
  PRES   - MEAN SEA LEVEL PRESSURE IN INCHES OF HG
  VSB    - VISIBILITY IN MILES
  HX     - HEAT INDEX
  WCI    - WIND CHILL INDEX
  VRB    - VARIABLE WIND DIRECTION
  N/A    - NOT AVAILABLE



USA.gov is the U.S. government's official web portal to all federal, state and local government web resources and services.